owner,sensor,date,latitude,longitude,vertical_datum,direction_of_sea_water_velocity,sea_water_speed,upward_sea_water_velocity,qcFlag 
TABS,ioos:station:wmo:42049:1,2017-08-01T00:00:00Z,28.3507,-96.0058,2.0,269.7731153,27.83021739,-99999.0,'11111222,11111222,99999999' 
TABS,ioos:station:wmo:42049:1,2017-08-01T00:30:00Z,28.3507,-96.0058,2.0,270.5864453,29.33153423,-99999.0,'11111222,11111222,99999999' 
TABS,ioos:station:wmo:42049:1,2017-08-01T01:00:00Z,28.3507,-96.0058,2.0,271.9517468,27.6060084,-99999.0,'11111222,11111222,99999999' 
TABS,ioos:station:wmo:42049:1,2017-08-01T01:30:00Z,28.3507,-96.0058,2.0,266.6468542,14.70516916,-99999.0,'11111222,11111222,99999999' 
TABS,ioos:station:wmo:42049:1,2017-08-01T02:00:00Z,28.3507,-96.0058,2.0,264.3227236,30.42923758,-99999.0,'11111222,11111222,99999999' 
TABS,ioos:station:wmo:42049:1,2017-08-01T02:30:00Z,28.3507,-96.0058,2.0,265.7264005,24.15715422,-99999.0,'11111222,11111222,99999999' 
TABS,ioos:station:wmo:42049:1,2017-08-01T03:00:00Z,28.3507,-96.0058,2.0,266.6516359,23.63033009,-99999.0,'11111222,11111222,99999999' 
TABS,ioos:station:wmo:42049:1,2017-08-01T03:30:00Z,28.3507,-96.0058,2.0,257.9886383,23.40232894,-99999.0,'11111222,11111222,99999999' 
TABS,ioos:station:wmo:42049:1,2017-08-01T04:00:00Z,28.3507,-96.0058,2.0,259.5103351,18.89576672,-99999.0,'11111222,11111222,99999999' 
TABS,ioos:station:wmo:42049:1,2017-08-01T04:30:00Z,28.3507,-96.0058,2.0,260.0272279,19.57576308,-99999.0,'11111222,11111222,99999999' 
TABS,ioos:station:wmo:42049:1,2017-08-01T05:00:00Z,28.3507,-96.0058,2.0,263.8294184,26.42306757,-99999.0,'11111222,11111222,99999999' 
TABS,ioos:station:wmo:42049:1,2017-08-01T05:30:00Z,28.3507,-96.0058,2.0,255.9396362,23.42166732,-99999.0,'11111222,11111222,99999999' 
TABS,ioos:station:wmo:42049:1,2017-08-01T06:00:00Z,28.3507,-96.0058,2.0,269.8572299,32.20009938,-99999.0,'11111222,11111222,99999999' 
TABS,ioos:station:wmo:42049:1,2017-08-01T06:30:00Z,28.3507,-96.0058,2.0,271.1365971,32.27634583,-99999.0,'11111222,11111222,99999999' 
TABS,ioos:station:wmo:42049:1,2017-08-01T07:00:00Z,28.3507,-96.0058,2.0,270.9453459,32.74445297,-99999.0,'11111222,11111222,99999999' 
TABS,ioos:station:wmo:42049:1,2017-08-01T07:30:00Z,28.3507,-96.0058,2.0,275.2778147,32.50779906,-99999.0,'11111222,11111222,99999999' 
TABS,ioos:station:wmo:42049:1,2017-08-01T08:00:00Z,28.3507,-96.0058,2.0,276.0427936,31.44469749,-99999.0,'11111222,11111222,99999999' 
TABS,ioos:station:wmo:42049:1,2017-08-01T08:30:00Z,28.3507,-96.0058,2.0,270.9875922,33.66499666,-99999.0,'11111222,11111222,99999999' 
TABS,ioos:station:wmo:42049:1,2017-08-01T09:00:00Z,28.3507,-96.0058,2.0,273.2401136,33.44344779,-99999.0,'11111222,11111222,99999999' 
TABS,ioos:station:wmo:42049:1,2017-08-01T09:30:00Z,28.3507,-96.0058,2.0,274.5555624,32.86380532,-99999.0,'11111222,11111222,99999999' 
TABS,ioos:station:wmo:42049:1,2017-08-01T10:00:00Z,28.3507,-96.0058,2.0,279.091396,31.45511882,-99999.0,'11111222,11111222,99999999' 
TABS,ioos:station:wmo:42049:1,2017-08-01T10:30:00Z,28.3507,-96.0058,2.0,270.5888526,29.21154053,-99999.0,'11111222,11111222,99999999' 
TABS,ioos:station:wmo:42049:1,2017-08-01T11:00:00Z,28.3507,-96.0058,2.0,272.9277621,24.67219488,-99999.0,'11111222,11111222,99999999' 
TABS,ioos:station:wmo:42049:1,2017-08-01T11:30:00Z,28.3507,-96.0058,2.0,273.068785,27.08883534,-99999.0,'11111222,11111222,99999999' 
TABS,ioos:station:wmo:42049:1,2017-08-01T12:00:00Z,28.3507,-96.0058,2.0,273.3943853,30.57362425,-99999.0,'11111222,11111222,99999999' 
TABS,ioos:station:wmo:42049:1,2017-08-01T12:30:00Z,28.3507,-96.0058,2.0,271.1695575,28.42591775,-99999.0,'11111222,11111222,99999999' 
TABS,ioos:station:wmo:42049:1,2017-08-01T13:00:00Z,28.3507,-96.0058,2.0,276.4720863,28.3909158,-99999.0,'11111222,11111222,99999999' 
TABS,ioos:station:wmo:42049:1,2017-08-01T13:30:00Z,28.3507,-96.0058,2.0,270.0932073,24.70003239,-99999.0,'11111222,11111222,99999999' 
TABS,ioos:station:wmo:42049:1,2017-08-01T14:00:00Z,28.3507,-96.0058,2.0,277.4328696,23.34615386,-99999.0,'11111222,11111222,99999999' 
TABS,ioos:station:wmo:42049:1,2017-08-01T14:30:00Z,28.3507,-96.0058,2.0,268.3079059,21.67944879,-99999.0,'11111222,11111222,99999999' 
TABS,ioos:station:wmo:42049:1,2017-08-01T15:00:00Z,28.3507,-96.0058,2.0,263.9277145,20.98774166,-99999.0,'11111222,11111222,99999999' 
TABS,ioos:station:wmo:42049:1,2017-08-01T15:30:00Z,28.3507,-96.0058,2.0,262.1121011,20.03958582,-99999.0,'11111222,11111222,99999999' 
TABS,ioos:station:wmo:42049:1,2017-08-01T16:00:00Z,28.3507,-96.0058,2.0,254.9233307,19.10767908,-99999.0,'11111222,11111222,99999999' 
TABS,ioos:station:wmo:42049:1,2017-08-01T16:30:00Z,28.3507,-96.0058,2.0,248.6631934,19.67878299,-99999.0,'11111222,11111222,99999999' 
TABS,ioos:station:wmo:42049:1,2017-08-01T17:00:00Z,28.3507,-96.0058,2.0,244.0334348,20.96651855,-99999.0,'11111222,11111222,99999999' 
TABS,ioos:station:wmo:42049:1,2017-08-01T17:30:00Z,28.3507,-96.0058,2.0,241.200708,23.29069557,-99999.0,'11111222,11111222,99999999' 
TABS,ioos:station:wmo:42049:1,2017-08-01T18:00:00Z,28.3507,-96.0058,2.0,243.8947861,22.27195546,-99999.0,'11111222,11111222,99999999' 
TABS,ioos:station:wmo:42049:1,2017-08-01T18:30:00Z,28.3507,-96.0058,2.0,249.9895361,23.5836914,-99999.0,'11111222,11111222,99999999' 
TABS,ioos:station:wmo:42049:1,2017-08-01T19:00:00Z,28.3507,-96.0058,2.0,245.2926697,25.24059033,-99999.0,'11111222,11111222,99999999' 
TABS,ioos:station:wmo:42049:1,2017-08-01T19:30:00Z,28.3507,-96.0058,2.0,242.4915806,24.18411462,-99999.0,'11111222,11111222,99999999' 
TABS,ioos:station:wmo:42049:1,2017-08-01T20:00:00Z,28.3507,-96.0058,2.0,237.9675937,27.31932832,-99999.0,'11111222,11111222,99999999' 
TABS,ioos:station:wmo:42049:1,2017-08-01T20:30:00Z,28.3507,-96.0058,2.0,237.1059892,29.33260643,-99999.0,'11111222,11111222,99999999' 
TABS,ioos:station:wmo:42049:1,2017-08-01T21:00:00Z,28.3507,-96.0058,2.0,238.0841398,29.73509711,-99999.0,'11111222,11111222,99999999' 
TABS,ioos:station:wmo:42049:1,2017-08-01T21:30:00Z,28.3507,-96.0058,2.0,234.5230551,29.4467061,-99999.0,'11111222,11111222,99999999' 
TABS,ioos:station:wmo:42049:1,2017-08-01T22:00:00Z,28.3507,-96.0058,2.0,239.6782614,33.65356742,-99999.0,'11111222,11111222,99999999' 
TABS,ioos:station:wmo:42049:1,2017-08-01T22:30:00Z,28.3507,-96.0058,2.0,251.7002306,40.09779296,-99999.0,'11111222,11111222,99999999' 
TABS,ioos:station:wmo:42049:1,2017-08-01T23:00:00Z,28.3507,-96.0058,2.0,255.6104741,49.61645392,-99999.0,'11111222,11111222,99999999' 
TABS,ioos:station:wmo:42049:1,2017-08-01T23:30:00Z,28.3507,-96.0058,2.0,254.5569898,51.18801129,-99999.0,'11111222,11111222,99999999' 
TABS,ioos:station:wmo:42049:1,2017-08-02T00:00:00Z,28.3507,-96.0058,2.0,256.9781363,54.36803657,-99999.0,'11111222,11111222,99999999' 
TABS,ioos:station:wmo:42049:1,2017-08-02T00:30:00Z,28.3507,-96.0058,2.0,260.2955847,47.93588322,-99999.0,'11111222,11111222,99999999' 
TABS,ioos:station:wmo:42049:1,2017-08-02T01:00:00Z,28.3507,-96.0058,2.0,261.7193273,51.79999228,-99999.0,'11111222,11111222,99999999' 
TABS,ioos:station:wmo:42049:1,2017-08-02T01:30:00Z,28.3507,-96.0058,2.0,263.7172464,36.09677132,-99999.0,'11111222,11111222,99999999' 
TABS,ioos:station:wmo:42049:1,2017-08-02T02:00:00Z,28.3507,-96.0058,2.0,257.9504892,49.10176066,-99999.0,'11111222,11111222,99999999' 
TABS,ioos:station:wmo:42049:1,2017-08-02T02:30:00Z,28.3507,-96.0058,2.0,257.2686644,27.36269358,-99999.0,'11111222,11111222,99999999' 
TABS,ioos:station:wmo:42049:1,2017-08-02T03:00:00Z,28.3507,-96.0058,2.0,255.9633684,29.43897417,-99999.0,'11111222,11111222,99999999' 
TABS,ioos:station:wmo:42049:1,2017-08-02T03:30:00Z,28.3507,-96.0058,2.0,246.4352931,21.18672462,-99999.0,'11111222,11111222,99999999' 
TABS,ioos:station:wmo:42049:1,2017-08-02T04:00:00Z,28.3507,-96.0058,2.0,254.5897621,26.3056971,-99999.0,'11111222,11111222,99999999' 
TABS,ioos:station:wmo:42049:1,2017-08-02T04:30:00Z,28.3507,-96.0058,2.0,256.0087691,24.48640439,-99999.0,'11111222,11111222,99999999' 
TABS,ioos:station:wmo:42049:1,2017-08-02T05:00:00Z,28.3507,-96.0058,2.0,247.2852198,20.97695164,-99999.0,'11111222,11111222,99999999' 
TABS,ioos:station:wmo:42049:1,2017-08-02T05:30:00Z,28.3507,-96.0058,2.0,247.0463896,22.07806604,-99999.0,'11111222,11111222,99999999' 
TABS,ioos:station:wmo:42049:1,2017-08-02T06:00:00Z,28.3507,-96.0058,2.0,247.8507871,23.58002757,-99999.0,'11111222,11111222,99999999' 
TABS,ioos:station:wmo:42049:1,2017-08-02T06:30:00Z,28.3507,-96.0058,2.0,263.2491478,50.27855408,-99999.0,'11111222,11111222,99999999' 
TABS,ioos:station:wmo:42049:1,2017-08-02T07:00:00Z,28.3507,-96.0058,2.0,260.621569,48.052232,-99999.0,'11111222,11111222,99999999' 
TABS,ioos:station:wmo:42049:1,2017-08-02T07:30:00Z,28.3507,-96.0058,2.0,264.6494982,46.65324212,-99999.0,'11111222,11111222,99999999' 
TABS,ioos:station:wmo:42049:1,2017-08-02T08:00:00Z,28.3507,-96.0058,2.0,259.0385511,44.12498725,-99999.0,'11111222,11111222,99999999' 
TABS,ioos:station:wmo:42049:1,2017-08-02T08:30:00Z,28.3507,-96.0058,2.0,261.4302782,43.35399059,-99999.0,'11111222,11111222,99999999' 
TABS,ioos:station:wmo:42049:1,2017-08-02T09:00:00Z,28.3507,-96.0058,2.0,263.6447097,38.75815398,-99999.0,'11111222,11111222,99999999' 
TABS,ioos:station:wmo:42049:1,2017-08-02T09:30:00Z,28.3507,-96.0058,2.0,258.1371024,34.97697814,-99999.0,'11111222,11111222,99999999' 
TABS,ioos:station:wmo:42049:1,2017-08-02T10:00:00Z,28.3507,-96.0058,2.0,258.3389642,33.00108029,-99999.0,'11111222,11111222,99999999' 
TABS,ioos:station:wmo:42049:1,2017-08-02T15:30:00Z,28.3507,-96.0058,2.0,224.650629,16.24961538,-99999.0,'11111222,11111222,99999999' 
TABS,ioos:station:wmo:42049:1,2017-08-02T16:00:00Z,28.3507,-96.0058,2.0,229.1633946,28.82704633,-99999.0,'11111222,11111222,99999999' 
TABS,ioos:station:wmo:42049:1,2017-08-02T16:30:00Z,28.3507,-96.0058,2.0,231.170622,28.02238034,-99999.0,'11111222,11111222,99999999' 
TABS,ioos:station:wmo:42049:1,2017-08-02T17:00:00Z,28.3507,-96.0058,2.0,238.7125367,19.44824928,-99999.0,'11111222,11111222,99999999' 
TABS,ioos:station:wmo:42049:1,2017-08-02T17:30:00Z,28.3507,-96.0058,2.0,239.8333203,35.24294256,-99999.0,'11111222,11111222,99999999' 
TABS,ioos:station:wmo:42049:1,2017-08-02T18:00:00Z,28.3507,-96.0058,2.0,234.1375128,40.02819132,-99999.0,'11111222,11111222,99999999' 
TABS,ioos:station:wmo:42049:1,2017-08-02T18:30:00Z,28.3507,-96.0058,2.0,229.680823,33.44457505,-99999.0,'11111222,11111222,99999999' 
TABS,ioos:station:wmo:42049:1,2017-08-02T19:00:00Z,28.3507,-96.0058,2.0,229.2071822,33.15366646,-99999.0,'11111222,11111222,99999999' 
TABS,ioos:station:wmo:42049:1,2017-08-02T19:30:00Z,28.3507,-96.0058,2.0,221.598437,25.98244407,-99999.0,'11111222,11111222,99999999' 
TABS,ioos:station:wmo:42049:1,2017-08-02T20:00:00Z,28.3507,-96.0058,2.0,209.2308688,19.2286375,-99999.0,'11111222,11111222,99999999' 
TABS,ioos:station:wmo:42049:1,2017-08-02T20:30:00Z,28.3507,-96.0058,2.0,217.2523104,35.93080155,-99999.0,'11111222,11111222,99999999' 
TABS,ioos:station:wmo:42049:1,2017-08-02T21:00:00Z,28.3507,-96.0058,2.0,229.9966428,31.5792036,-99999.0,'11111222,11111222,99999999' 
TABS,ioos:station:wmo:42049:1,2017-08-02T21:30:00Z,28.3507,-96.0058,2.0,222.6615574,29.98507796,-99999.0,'11111222,11111222,99999999' 
TABS,ioos:station:wmo:42049:1,2017-08-02T22:00:00Z,28.3507,-96.0058,2.0,223.5607056,39.70242436,-99999.0,'11111222,11111222,99999999' 
TABS,ioos:station:wmo:42049:1,2017-08-02T22:30:00Z,28.3507,-96.0058,2.0,227.2715333,43.16744375,-99999.0,'11111222,11111222,99999999' 
TABS,ioos:station:wmo:42049:1,2017-08-02T23:00:00Z,28.3507,-96.0058,2.0,229.194685,48.81508476,-99999.0,'11111222,11111222,99999999' 
TABS,ioos:station:wmo:42049:1,2017-08-02T23:30:00Z,28.3507,-96.0058,2.0,228.398984,49.25179083,-99999.0,'11111222,11111222,99999999' 
TABS,ioos:station:wmo:42049:1,2017-08-03T00:00:00Z,28.3507,-96.0058,2.0,225.1522689,53.10390758,-99999.0,'11111222,11111222,99999999' 
TABS,ioos:station:wmo:42049:1,2017-08-03T00:30:00Z,28.3507,-96.0058,2.0,233.2280448,40.81006003,-99999.0,'11111222,11111222,99999999' 
TABS,ioos:station:wmo:42049:1,2017-08-03T01:00:00Z,28.3507,-96.0058,2.0,224.7554849,26.54502967,-99999.0,'11111222,11111222,99999999' 
TABS,ioos:station:wmo:42049:1,2017-08-03T01:30:00Z,28.3507,-96.0058,2.0,239.8885139,34.34467936,-99999.0,'11111222,11111222,99999999' 
TABS,ioos:station:wmo:42049:1,2017-08-03T02:00:00Z,28.3507,-96.0058,2.0,219.9780658,19.95335811,-99999.0,'11111222,11111222,99999999' 
TABS,ioos:station:wmo:42049:1,2017-08-03T02:30:00Z,28.3507,-96.0058,2.0,241.1999064,22.70888813,-99999.0,'11111222,11111222,99999999' 
TABS,ioos:station:wmo:42049:1,2017-08-03T03:00:00Z,28.3507,-96.0058,2.0,246.4893847,19.55313018,-99999.0,'11111222,11111222,99999999' 
TABS,ioos:station:wmo:42049:1,2017-08-03T03:30:00Z,28.3507,-96.0058,2.0,258.863699,43.90668286,-99999.0,'11111222,11111222,99999999' 
TABS,ioos:station:wmo:42049:1,2017-08-03T04:00:00Z,28.3507,-96.0058,2.0,251.8036381,25.7791117,-99999.0,'11111222,11111222,99999999' 
TABS,ioos:station:wmo:42049:1,2017-08-03T04:30:00Z,28.3507,-96.0058,2.0,261.8868213,42.09124018,-99999.0,'11111222,11111222,99999999' 
TABS,ioos:station:wmo:42049:1,2017-08-03T05:00:00Z,28.3507,-96.0058,2.0,258.7824058,33.92813582,-99999.0,'11111222,11111222,99999999' 
TABS,ioos:station:wmo:42049:1,2017-08-03T05:30:00Z,28.3507,-96.0058,2.0,261.7120184,24.69791894,-99999.0,'11111222,11111222,99999999' 
TABS,ioos:station:wmo:42049:1,2017-08-03T06:00:00Z,28.3507,-96.0058,2.0,269.9533132,61.92002019,-99999.0,'11111222,11111222,99999999' 
TABS,ioos:station:wmo:42049:1,2017-08-03T06:30:00Z,28.3507,-96.0058,2.0,267.5434742,27.53529553,-99999.0,'11111222,11111222,99999999' 
TABS,ioos:station:wmo:42049:1,2017-08-03T07:00:00Z,28.3507,-96.0058,2.0,271.4638944,60.68979651,-99999.0,'11111222,11111222,99999999' 
TABS,ioos:station:wmo:42049:1,2017-08-03T07:30:00Z,28.3507,-96.0058,2.0,273.3496523,56.656771,-99999.0,'11111222,11111222,99999999' 
TABS,ioos:station:wmo:42049:1,2017-08-03T08:00:00Z,28.3507,-96.0058,2.0,274.9630412,52.36630405,-99999.0,'11111222,11111222,99999999' 
TABS,ioos:station:wmo:42049:1,2017-08-03T08:30:00Z,28.3507,-96.0058,2.0,277.089939,50.07283196,-99999.0,'11111222,11111222,99999999' 
TABS,ioos:station:wmo:42049:1,2017-08-03T09:00:00Z,28.3507,-96.0058,2.0,280.0480968,47.63051648,-99999.0,'11111222,11111222,99999999' 
TABS,ioos:station:wmo:42049:1,2017-08-03T09:30:00Z,28.3507,-96.0058,2.0,281.4404497,40.58633883,-99999.0,'11111222,11111222,99999999' 
TABS,ioos:station:wmo:42049:1,2017-08-03T10:00:00Z,28.3507,-96.0058,2.0,294.2266735,36.38430019,-99999.0,'11111222,11111222,99999999' 
TABS,ioos:station:wmo:42049:1,2017-08-03T10:30:00Z,28.3507,-96.0058,2.0,290.1166328,26.83715521,-99999.0,'11111222,11111222,99999999' 
TABS,ioos:station:wmo:42049:1,2017-08-03T11:00:00Z,28.3507,-96.0058,2.0,278.5408946,11.64917594,-99999.0,'11111222,11111222,99999999' 
TABS,ioos:station:wmo:42049:1,2017-08-03T11:30:00Z,28.3507,-96.0058,2.0,282.0951497,14.03146464,-99999.0,'11111222,11111222,99999999' 
TABS,ioos:station:wmo:42049:1,2017-08-03T12:00:00Z,28.3507,-96.0058,2.0,270.5210609,24.21099957,-99999.0,'11111222,11111222,99999999' 
TABS,ioos:station:wmo:42049:1,2017-08-03T12:30:00Z,28.3507,-96.0058,2.0,272.2865478,25.57035197,-99999.0,'11111222,11111222,99999999' 
TABS,ioos:station:wmo:42049:1,2017-08-03T13:00:00Z,28.3507,-96.0058,2.0,262.1702315,24.51855828,-99999.0,'11111222,11111222,99999999' 
TABS,ioos:station:wmo:42049:1,2017-08-03T13:30:00Z,28.3507,-96.0058,2.0,263.3284993,23.32794462,-99999.0,'11111222,11111222,99999999' 
TABS,ioos:station:wmo:42049:1,2017-08-03T14:00:00Z,28.3507,-96.0058,2.0,267.0887481,24.81201322,-99999.0,'11111222,11111222,99999999' 
TABS,ioos:station:wmo:42049:1,2017-08-03T14:30:00Z,28.3507,-96.0058,2.0,266.1241819,21.74973333,-99999.0,'11111222,11111222,99999999' 
TABS,ioos:station:wmo:42049:1,2017-08-03T15:00:00Z,28.3507,-96.0058,2.0,270.6293898,20.04120755,-99999.0,'11111222,11111222,99999999' 
TABS,ioos:station:wmo:42049:1,2017-08-03T15:30:00Z,28.3507,-96.0058,2.0,269.4899402,21.36084502,-99999.0,'11111222,11111222,99999999' 
TABS,ioos:station:wmo:42049:1,2017-08-03T16:00:00Z,28.3507,-96.0058,2.0,274.7225071,16.03442547,-99999.0,'11111222,11111222,99999999' 
TABS,ioos:station:wmo:42049:1,2017-08-03T16:30:00Z,28.3507,-96.0058,2.0,265.7656742,17.06657552,-99999.0,'11111222,11111222,99999999' 
TABS,ioos:station:wmo:42049:1,2017-08-03T17:00:00Z,28.3507,-96.0058,2.0,267.6051957,14.12232984,-99999.0,'11111222,11111222,99999999' 
TABS,ioos:station:wmo:42049:1,2017-08-03T17:30:00Z,28.3507,-96.0058,2.0,267.1993065,11.05319863,-99999.0,'11111222,11111222,99999999' 
TABS,ioos:station:wmo:42049:1,2017-08-03T18:00:00Z,28.3507,-96.0058,2.0,268.0098264,10.65642529,-99999.0,'11111222,11111222,99999999' 
TABS,ioos:station:wmo:42049:1,2017-08-03T18:30:00Z,28.3507,-96.0058,2.0,250.0782935,7.924171881,-99999.0,'11133222,11111222,99999999' 
TABS,ioos:station:wmo:42049:1,2017-08-03T19:00:00Z,28.3507,-96.0058,2.0,241.9239007,10.34764708,-99999.0,'11111222,11111222,99999999' 
TABS,ioos:station:wmo:42049:1,2017-08-03T19:30:00Z,28.3507,-96.0058,2.0,186.3399665,8.059292773,-99999.0,'11133222,11111222,99999999' 
TABS,ioos:station:wmo:42049:1,2017-08-03T20:00:00Z,28.3507,-96.0058,2.0,196.416984,10.50843947,-99999.0,'11111222,11111222,99999999' 
TABS,ioos:station:wmo:42049:1,2017-08-03T20:30:00Z,28.3507,-96.0058,2.0,192.7380028,10.38561505,-99999.0,'11111222,11111222,99999999' 
TABS,ioos:station:wmo:42049:1,2017-08-03T21:00:00Z,28.3507,-96.0058,2.0,227.7766322,10.65446855,-99999.0,'11111222,11111222,99999999' 
TABS,ioos:station:wmo:42049:1,2017-08-03T21:30:00Z,28.3507,-96.0058,2.0,201.2353213,13.91483022,-99999.0,'11111222,11111222,99999999' 
TABS,ioos:station:wmo:42049:1,2017-08-03T22:00:00Z,28.3507,-96.0058,2.0,209.7895214,15.82063526,-99999.0,'11111222,11111222,99999999' 
TABS,ioos:station:wmo:42049:1,2017-08-03T22:30:00Z,28.3507,-96.0058,2.0,215.2608503,10.11598735,-99999.0,'11111222,11111222,99999999' 
TABS,ioos:station:wmo:42049:1,2017-08-03T23:00:00Z,28.3507,-96.0058,2.0,218.6330307,10.1388017,-99999.0,'11111222,11111222,99999999' 
TABS,ioos:station:wmo:42049:1,2017-08-03T23:30:00Z,28.3507,-96.0058,2.0,218.6183822,10.87906706,-99999.0,'11111222,11111222,99999999' 
TABS,ioos:station:wmo:42049:1,2017-08-04T00:00:00Z,28.3507,-96.0058,2.0,210.3068404,13.01931258,-99999.0,'11111222,11111222,99999999' 
TABS,ioos:station:wmo:42049:1,2017-08-04T00:30:00Z,28.3507,-96.0058,2.0,215.3645393,12.71638707,-99999.0,'11111222,11111222,99999999' 
TABS,ioos:station:wmo:42049:1,2017-08-04T01:00:00Z,28.3507,-96.0058,2.0,219.8383053,8.881919838,-99999.0,'11133222,11111222,99999999' 
TABS,ioos:station:wmo:42049:1,2017-08-04T01:30:00Z,28.3507,-96.0058,2.0,220.7035929,14.53653329,-99999.0,'11111222,11111222,99999999' 
TABS,ioos:station:wmo:42049:1,2017-08-04T02:00:00Z,28.3507,-96.0058,2.0,259.334504,13.94081777,-99999.0,'11111222,11111222,99999999' 
TABS,ioos:station:wmo:42049:1,2017-08-04T02:30:00Z,28.3507,-96.0058,2.0,255.9633684,9.730529276,-99999.0,'11133222,11111222,99999999' 
TABS,ioos:station:wmo:42049:1,2017-08-04T03:00:00Z,28.3507,-96.0058,2.0,261.9227568,12.17072718,-99999.0,'11111222,11111222,99999999' 
TABS,ioos:station:wmo:42049:1,2017-08-04T03:30:00Z,28.3507,-96.0058,2.0,272.6393403,12.1628985,-99999.0,'11111222,11111222,99999999' 
TABS,ioos:station:wmo:42049:1,2017-08-04T04:00:00Z,28.3507,-96.0058,2.0,281.7595664,10.25522794,-99999.0,'11111222,11111222,99999999' 
TABS,ioos:station:wmo:42049:1,2017-08-04T04:30:00Z,28.3507,-96.0058,2.0,287.5160006,8.672081642,-99999.0,'11133222,11111222,99999999' 
TABS,ioos:station:wmo:42049:1,2017-08-04T05:00:00Z,28.3507,-96.0058,2.0,312.1738808,7.313309784,-99999.0,'11133222,11111222,99999999' 
TABS,ioos:station:wmo:42049:1,2017-08-04T05:30:00Z,28.3507,-96.0058,2.0,309.2075327,7.846527895,-99999.0,'11133222,11111222,99999999' 
TABS,ioos:station:wmo:42049:1,2017-08-04T06:00:00Z,28.3507,-96.0058,2.0,322.9194311,6.518044185,-99999.0,'11133222,11111222,99999999' 
TABS,ioos:station:wmo:42049:1,2017-08-04T06:30:00Z,28.3507,-96.0058,2.0,331.5298068,4.573051498,-99999.0,'11133222,11111222,99999999' 
TABS,ioos:station:wmo:42049:1,2017-08-04T07:00:00Z,28.3507,-96.0058,2.0,291.9490687,0.722357252,-99999.0,'11133222,11111222,99999999' 
TABS,ioos:station:wmo:42049:1,2017-08-04T07:30:00Z,28.3507,-96.0058,2.0,35.63361718,1.390323703,-99999.0,'11133222,11111222,99999999' 
TABS,ioos:station:wmo:42049:1,2017-08-04T08:00:00Z,28.3507,-96.0058,2.0,147.6994496,1.029271587,-99999.0,'11133222,11111222,99999999' 
TABS,ioos:station:wmo:42049:1,2017-08-04T08:30:00Z,28.3507,-96.0058,2.0,114.558146,1.660180713,-99999.0,'11133222,11111222,99999999' 
TABS,ioos:station:wmo:42049:1,2017-08-04T09:00:00Z,28.3507,-96.0058,2.0,144.6050765,3.729235847,-99999.0,'11133222,11111222,99999999' 
TABS,ioos:station:wmo:42049:1,2017-08-04T09:30:00Z,28.3507,-96.0058,2.0,136.7318488,6.550801478,-99999.0,'11133222,11111222,99999999' 
TABS,ioos:station:wmo:42049:1,2017-08-04T10:00:00Z,28.3507,-96.0058,2.0,96.09325703,6.406192317,-99999.0,'11133222,11111222,99999999' 
TABS,ioos:station:wmo:42049:1,2017-08-04T10:30:00Z,28.3507,-96.0058,2.0,92.0555208,8.085202533,-99999.0,'11133222,11111222,99999999' 
TABS,ioos:station:wmo:42049:1,2017-08-04T11:00:00Z,28.3507,-96.0058,2.0,78.88953102,3.94391937,-99999.0,'11133222,11111222,99999999' 
TABS,ioos:station:wmo:42049:1,2017-08-04T11:30:00Z,28.3507,-96.0058,2.0,103.0456066,4.208622102,-99999.0,'11133222,11111222,99999999' 
TABS,ioos:station:wmo:42049:1,2017-08-04T12:00:00Z,28.3507,-96.0058,2.0,128.5478748,5.600401771,-99999.0,'11133222,11111222,99999999' 
TABS,ioos:station:wmo:42049:1,2017-08-04T12:30:00Z,28.3507,-96.0058,2.0,149.234512,4.457274952,-99999.0,'11133222,11111222,99999999' 
TABS,ioos:station:wmo:42049:1,2017-08-04T13:00:00Z,28.3507,-96.0058,2.0,133.7583878,4.568982381,-99999.0,'11133222,11111222,99999999' 
TABS,ioos:station:wmo:42049:1,2017-08-04T13:30:00Z,28.3507,-96.0058,2.0,135.6561158,8.026188386,-99999.0,'11133222,11111222,99999999' 
TABS,ioos:station:wmo:42049:1,2017-08-04T14:00:00Z,28.3507,-96.0058,2.0,126.4902614,6.642145738,-99999.0,'11133222,11111222,99999999' 
TABS,ioos:station:wmo:42049:1,2017-08-04T14:30:00Z,28.3507,-96.0058,2.0,139.7635253,9.195868638,-99999.0,'11133222,11111222,99999999' 
TABS,ioos:station:wmo:42049:1,2017-08-04T15:00:00Z,28.3507,-96.0058,2.0,131.6635659,6.318100981,-99999.0,'11133222,11111222,99999999' 
TABS,ioos:station:wmo:42049:1,2017-08-04T15:30:00Z,28.3507,-96.0058,2.0,116.788924,8.009656672,-99999.0,'11133222,11111222,99999999' 
TABS,ioos:station:wmo:42049:1,2017-08-04T16:00:00Z,28.3507,-96.0058,2.0,95.68024216,9.396137504,-99999.0,'11133222,11111222,99999999' 
TABS,ioos:station:wmo:42049:1,2017-08-04T16:30:00Z,28.3507,-96.0058,2.0,83.159641,9.487533926,-99999.0,'11133222,11111222,99999999' 
TABS,ioos:station:wmo:42049:1,2017-08-04T17:00:00Z,28.3507,-96.0058,2.0,78.62738443,10.75109297,-99999.0,'11111222,11111222,99999999' 
TABS,ioos:station:wmo:42049:1,2017-08-04T17:30:00Z,28.3507,-96.0058,2.0,75.1185051,14.79628332,-99999.0,'11111222,11111222,99999999' 
TABS,ioos:station:wmo:42049:1,2017-08-04T18:00:00Z,28.3507,-96.0058,2.0,81.04781334,14.5877003,-99999.0,'11111222,11111222,99999999' 
TABS,ioos:station:wmo:42049:1,2017-08-04T18:30:00Z,28.3507,-96.0058,2.0,95.63449721,10.49068635,-99999.0,'11111222,11111222,99999999' 
TABS,ioos:station:wmo:42049:1,2017-08-04T19:00:00Z,28.3507,-96.0058,2.0,107.0456973,8.869633589,-99999.0,'11133222,11111222,99999999' 
TABS,ioos:station:wmo:42049:1,2017-08-04T19:30:00Z,28.3507,-96.0058,2.0,105.873339,9.835024148,-99999.0,'11133222,11111222,99999999' 
TABS,ioos:station:wmo:42049:1,2017-08-04T20:00:00Z,28.3507,-96.0058,2.0,109.3740945,10.61086707,-99999.0,'11111222,11111222,99999999' 
TABS,ioos:station:wmo:42049:1,2017-08-04T20:30:00Z,28.3507,-96.0058,2.0,115.3558585,13.98748369,-99999.0,'11111222,11111222,99999999' 
TABS,ioos:station:wmo:42049:1,2017-08-04T21:00:00Z,28.3507,-96.0058,2.0,107.7213487,12.1883633,-99999.0,'11111222,11111222,99999999' 